Tracking 23731 objects as of 26-Sep-2021
HD Live streaming from Space Station
objects crossing your sky now

STARLINK-1336

Track STARLINK-1336 now!
10-day predictions
STARLINK-1336 is classified as:


NORAD ID: 45557
Int'l Code: 2020-025AC
Perigee: 553.0 km
Apogee: 555.7 km
Inclination: 53.1 °
Period: 95.6 minutes
Semi major axis: 6925 km
RCS: Unknown
Launch date: April 22, 2020
Source: United States (US)
Launch site: AIR FORCE EASTERN TEST RANGE (AFETR)
aabbcc
Your satellite tracking list
Your tracking list is empty




NASA's NSSDC Master Catalog

Two Line Element Set (TLE):
1 45557U 20025AC  21269.01957971  .00000226  00000-0  34090-4 0  9994
2 45557  53.0555 184.5431 0001923  67.1436 292.9755 15.06397837 79744
Source of the keplerian elements: AFSPC